Showing default

FORMOSAT7-1/COSMIC2-1, 44349

Orbit data source: Space-Track

FORMOSAT7-1/COSMIC2-1, 44349 is a payload satellite owned by NSPO (TW) in LEO that was launched on Tue, 25 Jun 2019 UTC via an FALCON HEAVY launch vehicle from the Air Force Eastern Test Range (AFETR). Payload-class satellites include a variety of spacecraft equipped with specific instruments for various scientific and technological missions. These include communications satellites like Starlink; space stations such as the ISS; scientific satellites like the Hubble; Earth observation satellites from companies like Planet Labs, Umbra, and HawkEye 360; GPS; miniature CubeSats for education and research; and military/defense satellites.

Not visible in the next 10 days
Identifier
44349, 2019-036L
Orbit
LEO
Last TLE update
2 days ago
Origin
Manufacturer
SSTL (Astrium)
Mission
Operational Civil Weather
Bus & Motor
SSTL-100, Unknown motor
Mass
278 kg wet, 278 kg dry
Launch date (UTC)
2019-06-25 (6 years ago)
Launch vehicle
FALCON HEAVY
Launch site
Air Force Eastern Test Range (AFETR)
Object type
Payload
Rocket body
Debris
Shape & HBR
Box + 1 Pan, 3 m
Radar Cross Section
2.189 m², Large (>1 m²)

Expand to show TLE details & history

TLE from 2 days ago
0 FORMOSAT7-1/COSMIC2-1
1 44349U 19036L   25127.47591692  .00007140  00000-0  39984-3 0  9991
2 44349  23.9981 257.5010 0000821 281.5229  78.5183 15.10630796323714
Epoch: 2025-05-07T11:25Z
Definitive object data (Epoch: 2025-05-07T11:25:19.221Z)
Latitude
-0.00001°
Longitude
-139.38933°
Altitude
532.038 km
Speed
7.6 km/s
True Right ascension
17h 10m 00s
True Declination
0° 00' 00"
Sunlit
Object was in full shadow at TLE epoch
Visualization TLE readout
Latitude
20.55348°
Longitude
-95.76873°
Altitude
531.926 km
Speed
7.601 km/s
Apparent Right ascension
23h 19m 01s
Apparent Declination
-24° 27' 49"
Sunlit
Object is in daylight
Visualization observer readout
Local Sidereal Time
17:48:38
Azimuth
113.521° SE
Elevation
-10.124°
Doppler factor
1
Orbital elements
Apogee altitude
539.64 km
Perigee altitude
538.504 km
Semi-major axis
6,917.209 km
Eccentricity
0.0000821
Inclination
23.9981°
RAAN
257.501°
Arg. of periapsis
281.5229°
True anomaly
78.52752°
Mean anomaly
78.5183°
Eccentric anomaly
78.52291°
Mean motion
3.77265 °/min
BSTAR
0.00039984
Orbital period
95.42 mins
Loading maneuver chart data...
Loading SW <> Apogee altitude chart data...
Loading historical data...
Loading historical data...
Loading historical data...
Loading historical data...
Loading historical data...
Loading historical data...
Loading historical data...

FORMOSAT7-1/COSMIC2-1 Visibility forecast

Observer location: undefined°, undefined°

FORMOSAT7-1/COSMIC2-1 is not visible in the next 10 days
Span
Click to sort rows by Start time (UTC) header in descending order
Start Az.
Max El. time (UTC)
Max El. Az.
Max El.
End time (UTC)
End Az.
|